Location: Oakhurst
(33.6448°N, 111.9543°W)
Time: 21:58:33
(UTC+00:00)

FO-99 - Pass Details

Date: 05 August 2021
Orbit: 471 x 503 km, 97.2° (Epoch: 25 September)

Event Time Altitude Azimuth Distance (km) Brightness Sun altitude
Exits shadow 04:18:19 - 213° (SSW) 2,170 ? -21.3°
Reaches altitude 10° 04:19:54 10° 229° (SW) 1,712 ? -21.5°
Maximum altitude 04:22:05 15° 266° (W) 1,424 ? -21.9°
Drops below altitude 10° 04:24:18 10° 303° (WNW) 1,718 ? -22.2°
Sets 04:27:07 0° 327° (NNW) 2,605 ? -22.7°
